Back to catalog

STARLINK-5918

AliveCommunicationsVLEO
NORAD 55939·PAYLOAD·🇺🇸 United States

Launched Mar 17, 2023 from Vandenberg Space Force Base

Loading…

Next Passes (next 24 hours)

TLE

FreshSource: CelesTrak SupGP

Epoch: Sep 14, 2026, 14:06 UTC

1 55939C 23037AB  26257.58798611  .00302830  00000+0  25347-1 0  2577
2 55939  70.0008 168.1425 0003135 262.7732 186.0286 14.98225866    19

Track STARLINK-5918 in real time with AllMySat

Download on the App Store